COSMOS 1933

Last updated on Thu Oct 30 2025 00:02:15 GMT+0000 (Coordinated Universal Time)

1 18958U 88020A 25302.48838826 .00005990 00000+0 30525-3 0 9998 2 18958 82.5168 20.5788 0003091 302.8910 57.2026 15.16591606 30330
UTC large
Height (km)
Speed (km/s)
/
Latitude / Longitude
Inclination (degrees)
Orbital Period (minutes)
Azimuth
Elevation
Range (km)
Doppler Factor

Next 0 passes for location: London (51.5072 / 0.1276)

Sorry there are no passes over London.